Regional Weather Roundup
Issued by NWS

Home | Current Version | Previous Version | Graphics & Text | Print | Product List | Glossary Off
Versions: 1 2 3 4 5 6 7 8 9 10 11 12 13 14 15 16 17 18 19 20 21 22 23 24 25 26 27 28 29 30 31 32 33 34 35 36 37 38 39 40 41 42 43 44 45 46 47 48 49 50

000
ASUS43 KDTX 221610
RWRMI
MICHIGAN HOURLY REGIONAL WEATHER ROUNDUP
NATIONAL WEATHER SERVICE DETROIT/PONTIAC MI
1200 PM EDT SAT JUL 22 2017

NOTE: "FAIR" INDICATES FEW OR NO CLOUDS BELOW 12,000 FEET WITH NO
SIGNIFICANT WEATHER AND/OR OBSTRUCTION TO VISIBILITY.

MIZ047>049-052>055-059>063-066>070-074>076-081>083-221700-
SOUTHEAST LOWER MICHIGAN

CITY           SKY/WX    TMP DP  RH WIND       PRES   REMARKS
ADRIAN         CLOUDY    77  66  68 SW6       29.82F
ALMA           DRIZZLE   68  67  95 NE5       29.82S
ANN ARBOR      CLOUDY    80  73  79 VRB5      29.81F
BAD AXE        CLOUDY    68  67  94 E7        29.85F
CARO           DRIZZLE   70  67  92 SE5       29.83S
DETROIT CITY   LGT RAIN  76  73  91 S6        29.81F
DETROIT        CLOUDY    80  73  79 SW8       29.82F
FLINT          CLOUDY    74  71  91 S7        29.81F
GROSSE ILE     PTSUNNY   78  73  84 S7        29.80F
HILLSDALE      CLOUDY    77  70  78 SW5       29.82F
HOWELL         CLOUDY    76  72  88 S6        29.82F

CITY           SKY/WX    TMP DP  RH WIND       PRES   REMARKS
JACKSON        MOSUNNY   79  70  74 SW9       29.81F
LAMBERTVILLE   CLOUDY    77  73  86 SW3       29.81F
LANSING        PTSUNNY   78  70  76 SW8       29.81F
LAPEER         HVY RAIN  69  68  96 N5        29.84R
MASON          CLOUDY    78  71  80 W6        29.82S
MONROE         CLOUDY    79  74  83 SW3       29.81F
MT. CLEMENS    LGT RAIN  76  74  91 S7        29.80S
PONTIAC        LGT RAIN  72  71  97 CALM      29.82S
PORT HOPE        N/A     69  66  90 NE3       29.84F
PORT HURON     CLOUDY    75  72  88 NE6       29.83F
TRI CITIES     RAIN      70  70 100 NE6       29.81F FOG
MIDLAND        LGT RAIN  69  68  96 NE7       29.81F
TROY           CLOUDY    75  71  88 SW7       29.84S
SAGINAW HB     LGT RAIN  70  70 100 SE8       29.80F
$$
MIZ043>046-050>051-056>058-064>065-071>073-077>080-221700-
SOUTHWEST LOWER MICHIGAN

CITY           SKY/WX    TMP DP  RH WIND       PRES   REMARKS
BATTLE CREEK   PTSUNNY   79  71  76 SW9       29.83R
BENTON HARBOR  CLOUDY    78  70  76 W10       29.83R
BIG RAPIDS     DRIZZLE   67  64  91 E8G18     29.83R
COLDWATER      CLOUDY    80  73  78 SW3       29.81F
FREMONT        DRIZZLE   70  70 100 NE3       29.80S
HOLLAND        CLOUDY    75  69  81 W12       29.83R
GRAND RAPIDS   CLOUDY    80  71  74 SW14      29.80R
IONIA          CLOUDY    80  70  70 SW8       29.79S
KALAMAZOO      CLOUDY    80  69  69 W8        29.82R
LUDINGTON      CLOUDY    69  69  97 E6        29.81S FOG
MARSHALL       PTSUNNY   79  72  79 SW8       29.81F
MOUNT PLEASANT CLOUDY    70  68  94 NE7       29.82S FOG
MUSKEGON       CLOUDY    73  70  90 W10       29.80R FOG
SOUTH HAVEN    CLOUDY    79  72  79 NW5       29.83R
$$
MIZ016>042-221700-
NORTHERN LOWER MICHIGAN

CITY           SKY/WX    TMP DP  RH WIND       PRES   REMARKS
ALPENA         CLOUDY    70  65  84 E5        29.86F
BEAVER ISLAND  CLOUDY    75  64  70 CALM      29.84F
BELLAIRE       CLOUDY    73  66  79 CALM      29.83R
CADILLAC       CLOUDY    71  65  83 E6        29.84S
CHARLEVOIX     CLOUDY    73  65  76 N6        29.87S
FRANKFORT      CLOUDY    77  67  72 NE3       29.82S
GAYLORD        CLOUDY    72  63  73 NE3       29.86F
GRAYLING       CLOUDY    72  63  72 E7        29.86S
HARBOR SPRINGS CLOUDY    76  67  74 E6        29.84S
HOUGHTON LAKE  CLOUDY    70  65  84 VRB3      29.85F
MANISTEE       CLOUDY    74  67  78 CALM      29.81S
OSCODA         CLOUDY    74  66  74 S9        29.84F
PELLSTON       CLOUDY    77  65  66 E8        29.84F
ROGERS CITY    LGT RAIN  72  61  69 E5        29.86F
TRAVERSE CITY  CLOUDY    78  65  63 NE5       29.81S
$$
MIZ007>008-015-221700-
EASTERN UPPER MICHIGAN

CITY           SKY/WX    TMP DP  RH WIND       PRES   REMARKS
KINROSS        CLOUDY    71  59  65 E8        29.86F
MACKINAC ISLAN CLOUDY    69  63  82 E10G18    29.85F
NEWBERRY       CLOUDY    73  64  74 CALM      29.86S HAZE
S. S. MARIE    PTSUNNY   74  59  59 VRB6      29.86F
MUNISING         N/A     78  66  66 CALM      29.83S
$$
MIZ004>006-011>014-085-221700-
CENTRAL UPPER MICHIGAN

CITY           SKY/WX    TMP DP  RH WIND       PRES   REMARKS
MANISTIQUE     CLOUDY    73  65  76 S6        29.84R
ESCANABA       CLOUDY    74  65  73 SW6       29.84S
MENOMINEE      CLOUDY    74  64  71 S3        29.84F
SAWYER-GWINN   PTSUNNY   73  64  73 SW13      29.86R
$$
MIZ001>003-009>011-084-221700-
WESTERN UPPER MICHIGAN

CITY           SKY/WX    TMP DP  RH WIND       PRES   REMARKS
IRON MOUNTAIN  CLOUDY    75  64  68 NW7       29.83F
HOUGHTON       CLOUDY    71  62  73 E8        29.82S
COPPER HARBOR    N/A     55  50  83 SE8       29.85S
IRONWOOD       CLOUDY    73  64  73 NW8       29.83F
$$

ABBREVIATIONS USED IN REMARKS
   TC - TEMPERATURE IN CELSIUS
  WCI - WIND CHILL INDEX
   HX - HEAT INDEX
  VSB - VISIBILITY




USA.gov is the U.S. government's official web portal to all federal, state and local government web resources and services.